Tracking 31027 objects as of 19-Jul-2025
HD Live streaming from Space Station
objects crossing your sky now

DIAMANT B-P4 R/B

Track DIAMANT B-P4 R/B now!
10-day predictions


NORAD ID: 7647
Int'l Code: 1975-010B
Perigee: 803.5 km
Apogee: 1,122.5 km
Inclination: 49.8 °
Period: 104.2 minutes
Semi major axis: 7333 km
RCS: 0.969 m2 (medium)
Launch date: February 6, 1975
Source: France (FR)
Launch site: FRENCH GUIANA (FRGUI)

Note: This is a ROCKET BODY
Your satellite tracking list
COSMOS 2502
Track 1 satellite(s)




NASA's NSSDC Master Catalog

Two Line Element Set (TLE):
1  7647U 75010B   25199.65263672 -.00000081  00000-0  46110-4 0  9996
2  7647  49.8237 184.4120 0217504 225.1531 133.1509 13.82273760545204
Source of the keplerian elements: AFSPC